Content
SEND FEEDBACK

Daily
Averages
Monthly
Summary
United States of America

BOSTON, MASSACHUSETTS


Home > North America > United States > Massachusetts
Elevation: 4 feet     Latitude: 42 22N     Longitude: 071 02W

WEATHER
 
SELECT A DAY
Number of Records: 207,179;   Date Range: 1/1/95 - 12/24/14
 
SHARE

PRINT THIS DATA

[ ← Previous Day ]
WEATHER ALMANAC - MARCH 23, 2013
[ Next Day → ]
[ °C ]   °F
Weather ElementAverageHighLow
Temperature36.9 °F44.1 °F (4:54 pm)30 °F (2:54 am)
Dewpoint17.8 °F21 °F (7:54 am)15.1 °F (5:54 pm)
Humidity47.3 %64 % (4:54 am)32 % (4:54 pm)
Barometer29.71 in29.78 in (8:54 pm)29.63 in (3:54 pm)
Wind Speed16.5 mph25.3 mph (5:54 pm)
Wind Gust32.2 mph (5:54 pm)
Weather ElementAverage
Visibility10 mi
Wind DirectionWNW (288.3 °)

Weather ElementTotal
Precipitation---
Heating Degree Days28 (Base 65)
Averaged from 23 records on March 23, 2013
WEATHER CONDITIONS BREAKOUT
WIND DIRECTION BREAKOUT
WEATHER BY HOUR - MARCH 23, 2013
[ °C ]   °F
Local TimeTemperatureDewpointHumidityBarometerVisibilityWind DirectionWind SpeedGust SpeedPrecipitationEventsConditions
1:54 AM30.9 °F18.0 °F59 %29.75 in10.0 miWNW (290°)13.8 mphClear
2:54 AM30.0 °F17.1 °F59 %29.74 in10.0 miWNW (290°)11.5 mphClear
3:54 AM30.0 °F18.0 °F61 %29.73 in10.0 miWest (280°)13.8 mph20.7 mphClear
4:54 AM30.0 °F19.0 °F64 %29.72 in10.0 miWest (260°)19.6 mph26.5 mphClear
5:54 AM30.9 °F19.9 °F64 %29.72 in10.0 miWest (260°)13.8 mph21.9 mphClear
6:54 AM30.9 °F19.9 °F64 %29.72 in10.0 miWest (270°)15.0 mph23.0 mphClear
7:54 AM33.1 °F21.0 °F61 %29.70 in10.0 miWest (260°)16.1 mph21.9 mphClear
8:54 AM35.1 °F21.0 °F57 %29.70 in10.0 miWest (270°)17.3 mph29.9 mphPartly Cloudy
9:54 AM37.0 °F19.0 °F48 %29.70 in10.0 miWest (280°)18.4 mph26.5 mphScattered Clouds
10:54 AM37.9 °F18.0 °F45 %29.69 in10.0 miWNW (290°)18.4 mph28.8 mphScattered Clouds
11:54 AM39.0 °F18.0 °F43 %29.67 in10.0 miWest (280°)19.6 mph27.6 mphMostly Cloudy
12:54 PM39.9 °F18.0 °F41 %29.66 in10.0 miWest (280°)18.4 mph24.2 mphMostly Cloudy
1:54 PM41.0 °F17.1 °F38 %29.66 in10.0 miWNW (300°)17.3 mph31.1 mphMostly Cloudy
2:54 PM42.1 °F16.0 °F35 %29.65 in10.0 miWNW (300°)18.4 mph28.8 mphMostly Cloudy
3:54 PM43.0 °F16.0 °F34 %29.63 in10.0 miWest (280°)18.4 mph31.1 mphMostly Cloudy
4:54 PM44.1 °F16.0 °F32 %29.64 in10.0 miNW (310°)17.3 mph26.5 mphScattered Clouds
5:54 PM43.0 °F15.1 °F32 %29.68 in10.0 miNW (320°)25.3 mph32.2 mphScattered Clouds
6:54 PM41.0 °F15.1 °F35 %29.70 in10.0 miNW (320°)20.7 mph29.9 mphPartly Cloudy
7:54 PM39.9 °F16.0 °F38 %29.74 in10.0 miNNW (330°)17.3 mph27.6 mphPartly Cloudy
8:54 PM39.0 °F17.1 °F41 %29.78 in10.0 miNW (310°)11.5 mph20.7 mphScattered Clouds
9:54 PM37.9 °F17.1 °F43 %29.78 in10.0 miWNW (290°)10.4 mphPartly Cloudy
10:54 PM37.0 °F18.0 °F46 %29.78 in10.0 miWest (280°)15.0 mph21.9 mphClear
11:54 PM36.0 °F18.0 °F48 %29.78 in10.0 miWest (280°)12.7 mphPartly Cloudy
Hourly data recorded from KBOS, located miles away from Boston, Massachusetts







STORIES FROM OUR PARTNERS